Find Ludi Tance 1-01A

NORAD ID: 51284 Int'l Des: 2022-007 Owner: SAST Country: CN operational
LEOCIRCULARRETROGRADESSO

Live Position

Loading 3D Globe...

About Ludi Tance 1-01A

Description loading...

Upcoming Passes

Passes for default location (London). Set your location on the main map for personalized predictions.

Altitude History

Loading altitude history...

Two-Line Element Set

1 51284U 22007A 26107.00464593 .00000367 00000-0 45503-4 0 9995
2 51284 97.8101 115.2987 0001622 90.3052 269.8351 14.88416517229373
Epoch: Apr 17, 2026 • Age: 10 hours

Current Status

Altitude 610.6 km
Velocity 7.55 km/s
Sub-Earth Point -18.99°S, 127.25°E
Launch Date Jan 25, 2022
Age 4.2 years
Type other

Technical Details

Classification Payload
Mass 3200.00 kg
Dry Mass 2500.00 kg
Total Mass 3200.00 kg
Length 2.00 m
Diameter 2.00 m
Span 10.00 m
Shape Box + 4 Pan
Manufacturer SAST
Bus Type LSAR
Phase Status In Orbit
Owner/State SAST/CN

Most Searched